カタログに戻る

STARLINK-31946

運用中通信VLEO
NORAD 59940·PAYLOAD·🇺🇸 United States

打ち上げ Jun 1, 2024 から Cape Canaveral Space Force Station

Loading…

次のパス (今後24時間)

TLE

最新Source: CelesTrak SupGP

元期: Sep 14, 2026, 20:56 UTC

1 59940C 24106U   26257.87270833 -.00012407  00000+0 -44935-3 0  2570
2 59940  43.0029 344.5041 0001447 278.6860 359.4249 15.27587790    19

AllMySatでSTARLINK-31946をリアルタイム追跡

Download on the App Store